Back to catalog

STARLINK-2726

AliveCommunicationsVLEO
NORAD 48662·PAYLOAD·🇺🇸 United States

Launched May 26, 2021 from Cape Canaveral Space Force Station

Loading…

Next Passes (next 24 hours)

TLE

FreshSource: CelesTrak SupGP

Epoch: Sep 14, 2026, 14:15 UTC

1 48662C 21044AA  26257.59423611  .00052803  00000+0  16981-2 0  2571
2 48662  53.1594 316.3000 0001331  76.5579 103.7997 15.31674506    10

Track STARLINK-2726 in real time with AllMySat

Download on the App Store